When you browse on this site, cookies collect data to enhance your experience and personalize the content and advertising you see.
Visit our Privacy Policy to learn more. By continuing to use the site, you agree to this use of cookies and data.

Stündliche Wetter Malanje

Heute, 5 Juli, Sonntag

Zeit Temperatur Niederschläge Wind Luftdruck Luftfeuchtigkeit
00:00 +16°C° 0 mm 1 m/S 665 mmHg 40%
01:00 +15°C° 0 mm 1 m/S 665 mmHg 44%
02:00 +15°C° 0 mm 2 m/S 664 mmHg 46%
03:00 +14°C° 0 mm 2 m/S 664 mmHg 48%
04:00 +14°C° 0 mm 2 m/S 664 mmHg 51%
05:00 +13°C° 0 mm 3 m/S 665 mmHg 49%
06:00 +13°C° 0 mm 3 m/S 665 mmHg 46%
07:00 +14°C° 0 mm 3 m/S 666 mmHg 44%
08:00 +19°C° 0 mm 4 m/S 666 mmHg 37%
09:00 +22°C° 0 mm 4 m/S 667 mmHg 29%
10:00 +27°C° 0 mm 4 m/S 668 mmHg 22%
11:00 +28°C° 0 mm 4 m/S 668 mmHg 20%
12:00 +30°C° 0 mm 3 m/S 667 mmHg 19%
13:00 +31°C° 0 mm 3 m/S 667 mmHg 17%
14:00 +31°C° 0 mm 3 m/S 666 mmHg 17%
15:00 +31°C° 0 mm 3 m/S 666 mmHg 17%
16:00 +31°C° 0 mm 2 m/S 665 mmHg 17%
17:00 +27°C° 0 mm 2 m/S 665 mmHg 20%
18:00 +24°C° 0 mm 2 m/S 665 mmHg 24%
19:00 +21°C° 0 mm 1 m/S 664 mmHg 28%
20:00 +20°C° 0 mm 1 m/S 665 mmHg 30%
21:00 +19°C° 0 mm 1 m/S 665 mmHg 31%
22:00 +19°C° 0 mm 1 m/S 665 mmHg 33%
23:00 +18°C° 0 mm 1 m/S 665 mmHg 34%

Morgen, 6 Juli, Montag

Zeit Temperatur Niederschläge Wind Luftdruck Luftfeuchtigkeit
00:00 +16°C° 0 mm 1 m/S 665 mmHg 36%
01:00 +16°C° 0 mm 1 m/S 665 mmHg 37%
02:00 +15°C° 0 mm 1 m/S 664 mmHg 40%
03:00 +14°C° 0 mm 1 m/S 664 mmHg 43%
04:00 +13°C° 0 mm 1 m/S 664 mmHg 46%
05:00 +13°C° 0 mm 2 m/S 665 mmHg 45%
06:00 +13°C° 0 mm 2 m/S 665 mmHg 44%
07:00 +13°C° 0 mm 3 m/S 666 mmHg 44%
08:00 +18°C° 0 mm 3 m/S 667 mmHg 35%
09:00 +21°C° 0 mm 4 m/S 667 mmHg 26%
10:00 +26°C° 0 mm 4 m/S 668 mmHg 18%
11:00 +28°C° 0 mm 4 m/S 668 mmHg 16%
12:00 +29°C° 0 mm 3 m/S 667 mmHg 14%
13:00 +31°C° 0 mm 3 m/S 667 mmHg 12%
14:00 +31°C° 0 mm 2 m/S 666 mmHg 12%
15:00 +31°C° 0 mm 2 m/S 666 mmHg 12%
16:00 +31°C° 0 mm 2 m/S 665 mmHg 11%
17:00 +28°C° 0 mm 2 m/S 665 mmHg 14%
18:00 +25°C° 0 mm 2 m/S 664 mmHg 17%
19:00 +21°C° 0 mm 2 m/S 664 mmHg 20%
20:00 +21°C° 0 mm 1 m/S 664 mmHg 20%
21:00 +20°C° 0 mm 1 m/S 665 mmHg 21%
22:00 +19°C° 0 mm 1 m/S 665 mmHg 21%
23:00 +18°C° 0 mm 1 m/S 665 mmHg 23%

übermorgen, 7 Juli, Dienstag

Zeit Temperatur Niederschläge Wind Luftdruck Luftfeuchtigkeit
00:00 +16°C° 0 mm 1 m/S 664 mmHg 25%
01:00 +15°C° 0 mm 1 m/S 664 mmHg 27%
02:00 +14°C° 0 mm 1 m/S 664 mmHg 28%
03:00 +13°C° 0 mm 1 m/S 664 mmHg 30%
04:00 +12°C° 0 mm 1 m/S 663 mmHg 32%
05:00 +13°C° 0 mm 2 m/S 664 mmHg 33%
06:00 +13°C° 0 mm 2 m/S 664 mmHg 34%
07:00 +12°C° 0 mm 3 m/S 665 mmHg 35%
08:00 +17°C° 0 mm 3 m/S 666 mmHg 29%
09:00 +21°C° 0 mm 3 m/S 666 mmHg 23%
10:00 +26°C° 0 mm 4 m/S 667 mmHg 17%
11:00 +28°C° 0 mm 3 m/S 667 mmHg 15%
12:00 +30°C° 0 mm 3 m/S 666 mmHg 13%
13:00 +32°C° 0 mm 2 m/S 666 mmHg 10%
14:00 +32°C° 0 mm 2 m/S 665 mmHg 10%
15:00 +32°C° 0 mm 2 m/S 664 mmHg 10%
16:00 +32°C° 0 mm 1 m/S 664 mmHg 9%
17:00 +29°C° 0 mm 1 m/S 663 mmHg 12%
18:00 +25°C° 0 mm 1 m/S 663 mmHg 15%
19:00 +22°C° 0 mm 1 m/S 663 mmHg 17%
20:00 +21°C° 0 mm 1 m/S 663 mmHg 18%
21:00 +20°C° 0 mm 1 m/S 663 mmHg 20%
22:00 +19°C° 0 mm 1 m/S 664 mmHg 21%
23:00 +18°C° 0 mm 1 m/S 663 mmHg 23%

8 Juli, Mittwoch

Zeit Temperatur Niederschläge Wind Luftdruck Luftfeuchtigkeit
00:00 +16°C° 0 mm 1 m/S 663 mmHg 25%
01:00 +14°C° 0 mm 0 m/S 663 mmHg 28%
02:00 +14°C° 0 mm 1 m/S 663 mmHg 28%
03:00 +14°C° 0 mm 1 m/S 663 mmHg 29%
04:00 +13°C° 0 mm 1 m/S 663 mmHg 29%
05:00 +13°C° 0 mm 1 m/S 663 mmHg 30%
06:00 +13°C° 0 mm 2 m/S 664 mmHg 31%
07:00 +13°C° 0 mm 2 m/S 664 mmHg 32%
08:00 +17°C° 0 mm 2 m/S 665 mmHg 27%
09:00 +23°C° 0 mm 2 m/S 666 mmHg 22%
10:00 +27°C° 0 mm 2 m/S 667 mmHg 17%
11:00 +29°C° 0 mm 2 m/S 667 mmHg 15%
12:00 +32°C° 0 mm 2 m/S 667 mmHg 13%
13:00 +35°C° 0 mm 2 m/S 667 mmHg 11%
14:00 +35°C° 0 mm 2 m/S 666 mmHg 11%
15:00 +34°C° 0 mm 1 m/S 666 mmHg 11%
16:00 +33°C° 0 mm 1 m/S 665 mmHg 11%
17:00 +30°C° 0 mm 1 m/S 665 mmHg 15%
18:00 +26°C° 0 mm 1 m/S 664 mmHg 18%
19:00 +23°C° 0 mm 1 m/S 664 mmHg 22%
20:00 +22°C° 0 mm 1 m/S 664 mmHg 24%
21:00 +21°C° 0 mm 1 m/S 664 mmHg 25%
22:00 +20°C° 0 mm 1 m/S 665 mmHg 27%
23:00 +19°C° 0 mm 1 m/S 664 mmHg 32%

9 Juli, Donnerstag

Zeit Temperatur Niederschläge Wind Luftdruck Luftfeuchtigkeit
00:00 +18°C° 0 mm 1 m/S 664 mmHg 36%
01:00 +16°C° 0 mm 1 m/S 664 mmHg 41%
02:00 +15°C° 0 mm 1 m/S 664 mmHg 46%
03:00 +14°C° 0 mm 1 m/S 663 mmHg 51%
04:00 +12°C° 0 mm 0 m/S 663 mmHg 56%
05:00 +13°C° 0 mm 0 m/S 664 mmHg 53%
06:00 +13°C° 0 mm 0 m/S 665 mmHg 49%
07:00 +14°C° 0 mm 0 m/S 665 mmHg 46%
08:00 +21°C° 0 mm 1 m/S 666 mmHg 36%
09:00 +25°C° 0 mm 1 m/S 667 mmHg 26%
10:00 +29°C° 0 mm 1 m/S 668 mmHg 16%
11:00 +32°C° 0 mm 1 m/S 668 mmHg 15%
12:00 +35°C° 0 mm 1 m/S 668 mmHg 13%
13:00 +37°C° 0 mm 1 m/S 668 mmHg 11%
14:00 +36°C° 0 mm 1 m/S 667 mmHg 11%
15:00 +33°C° 0 mm 0 m/S 666 mmHg 11%
16:00 +33°C° 0 mm 0 m/S 665 mmHg 12%
17:00 +29°C° 0 mm 0 m/S 665 mmHg 15%
18:00 +25°C° 0 mm 0 m/S 665 mmHg 19%
19:00 +24°C° 0 mm 1 m/S 664 mmHg 22%
20:00 +22°C° 0 mm 1 m/S 664 mmHg 31%
21:00 +21°C° 0 mm 1 m/S 665 mmHg 39%
22:00 +19°C° 0 mm 2 m/S 665 mmHg 48%
23:00 +18°C° 0 mm 2 m/S 664 mmHg 53%

10 Juli, Freitag

Zeit Temperatur Niederschläge Wind Luftdruck Luftfeuchtigkeit
00:00 +18°C° 0 mm 2 m/S 664 mmHg 59%
01:00 +17°C° 0 mm 2 m/S 664 mmHg 64%
02:00 +16°C° 0 mm 1 m/S 664 mmHg 67%
03:00 +15°C° 0 mm 1 m/S 663 mmHg 71%
04:00 +15°C° 0 mm 1 m/S 663 mmHg 74%
05:00 +15°C° 0 mm 1 m/S 664 mmHg 72%
06:00 +16°C° 0 mm 1 m/S 664 mmHg 70%
07:00 +16°C° 0 mm 1 m/S 665 mmHg 68%
08:00 +21°C° 0 mm 1 m/S 666 mmHg 52%
09:00 +26°C° 0 mm 1 m/S 667 mmHg 36%
10:00 +30°C° 0 mm 2 m/S 668 mmHg 21%
11:00 +33°C° 0 mm 1 m/S 668 mmHg 17%
12:00 +36°C° 0 mm 1 m/S 668 mmHg 14%
13:00 +40°C° 0 mm 1 m/S 668 mmHg 11%
14:00 +36°C° 0 mm 0 m/S 667 mmHg 12%
15:00 +35°C° 0 mm 0 m/S 666 mmHg 12%
16:00 +34°C° 0 mm 0 m/S 665 mmHg 13%
17:00 +32°C° 0 mm 1 m/S 665 mmHg 17%
18:00 +28°C° 0 mm 1 m/S 664 mmHg 22%
19:00 +25°C° 0 mm 1 m/S 664 mmHg 27%
20:00 +23°C° 0 mm 1 m/S 664 mmHg 37%
21:00 +20°C° 0 mm 2 m/S 664 mmHg 47%
22:00 +19°C° 0 mm 2 m/S 664 mmHg 56%
23:00 +18°C° 0 mm 2 m/S 664 mmHg 60%
Mehr zeigen